BEIDOU-3 M23

Last updated on Thu Nov 21 2024 00:02:31 GMT+0000 (Coordinated Universal Time)

1 44543U 19061B 24324.55670227 .00000016 00000+0 00000+0 0 9991 2 44543 54.4236 202.0820 0005675 7.6219 168.5716 1.86229595 35085
UTC large
Height (km)
Speed (km/s)
/
Latitude / Longitude
Inclination (degrees)
Orbital Period (minutes)
Azimuth
Elevation
Range (km)
Doppler Factor

Next 0 passes for location: London (51.5072 / 0.1276)

Sorry there are no passes over London.